Clinton, IA

8:52 AM CST on November 20, 2019 (GMT -0600)
Clinton Municipal

Weather History for KCWI - October, 2019

Change the Weather History Date:

Thursday, October 17, 2019

  Actual Average Record
Temperature  
Mean Temperature 45 °F -  
Max Temperature 57 °F 63 °F 88 °F (1950)
Min Temperature 33 °F 40 °F 24 °F (1992)
Degree Days  
Heating Degree Days 20    
Moisture  
Dew Point 37 °F    
Average Humidity 76    
Maximum Humidity 100    
Minimum Humidity 49    
Precipitation  
Precipitation 0.00 in - - ()
Sea Level Pressure  
Sea Level Pressure 30.06 in    
Wind  
Wind Speed 5 mph ()    
Max Wind Speed 8 mph    
Max Gust Speed -    
Visibility 9.7 miles    
Events      
Averages and records for this station are not official NWS values.
T = Trace of Precipitation, MM = Missing Value Source: Averaged Metar Reports

Daily Weather History Graph

Daily Weather History Graph

Search for Another Location

Airport or City:

Astronomy

Oct. 17, 2019 Rise Set
Actual Time 7:15 AM CDT 6:17 PM CDT
Civil Twilight 6:47 AM CDT 6:45 PM CDT
Nautical Twilight 6:15 AM CDT 7:17 PM CDT
Astronomical Twilight 5:42 AM CDT 7:49 PM CDT
Moon 8:46 PM CDT (10/17) 10:50 AM CDT (10/17)
Length of Visible Light 11h 57m
Length of Day
11h 01m
Waning Gibbous, 86% of the Moon is Illuminated
Oct 17
Waning Gibbous
Oct 21
Last Quarter
Oct 27
New
Nov 4
First Quarter
Nov 12
Full

Hourly Weather History & Observations

Time (CDT) Temp. Windchill Dew Point Humidity Pressure Visibility Wind Dir Wind Speed Gust Speed Precip Events Conditions
12:56 AM 42.1 °F 38.4 °F 37.9 °F 85% 30.09 in 10.0 mi WNW 5.8 mph - N/A   Overcast
1:56 AM 42.1 °F 38.4 °F 37.9 °F 85% 30.09 in 10.0 mi West 5.8 mph - N/A   Scattered Clouds
2:56 AM 39.0 °F 34.8 °F 37.0 °F 93% 30.08 in 10.0 mi West 5.8 mph - N/A   Clear
3:56 AM 39.0 °F 34.8 °F 37.0 °F 93% 30.08 in 10.0 mi WNW 5.8 mph - N/A   Clear
4:56 AM 37.0 °F 32.4 °F 35.1 °F 93% 30.08 in 10.0 mi West 5.8 mph - N/A   Clear
5:56 AM 35.1 °F 29.3 °F 34.0 °F 96% 30.08 in 10.0 mi West 6.9 mph - N/A   Clear
6:56 AM 33.1 °F 28.7 °F 33.1 °F 100% 30.09 in 10.0 mi West 4.6 mph - N/A   Clear
7:56 AM 34.0 °F 31.0 °F 34.0 °F 100% 30.09 in 10.0 mi WSW 3.5 mph - N/A   Clear
8:56 AM 42.1 °F 39.2 °F 37.0 °F 82% 30.12 in 10.0 mi WNW 4.6 mph - N/A   Clear
9:56 AM 46.9 °F - 37.0 °F 68% 30.12 in 10.0 mi NNW 4.6 mph - N/A   Clear
10:56 AM 48.9 °F - 37.0 °F 64% 30.11 in 10.0 mi Variable 4.6 mph - N/A   Partly Cloudy
11:56 AM 51.1 °F - 37.0 °F 59% 30.09 in 10.0 mi West 5.8 mph - N/A   Partly Cloudy
12:56 PM 53.1 °F - 37.0 °F 55% 30.08 in 10.0 mi SW 8.1 mph - N/A   Partly Cloudy
1:56 PM 55.0 °F - 37.0 °F 51% 30.05 in 10.0 mi Calm Calm - N/A   Clear
2:56 PM 55.9 °F - 37.0 °F 49% 30.04 in 4.0 mi Variable 4.6 mph - N/A   Haze
3:56 PM 57.0 °F - 37.9 °F 49% 30.02 in 10.0 mi SE 4.6 mph - N/A   Clear
4:56 PM 55.9 °F - 37.0 °F 49% 30.01 in 10.0 mi Calm Calm - N/A   Clear
5:56 PM 53.1 °F - 37.9 °F 57% 30.02 in 9.0 mi SSE 4.6 mph - N/A   Clear
6:56 PM 48.0 °F - 37.9 °F 68% 30.03 in 10.0 mi SE 4.6 mph - N/A   Clear
7:56 PM 43.0 °F 39.5 °F 37.0 °F 80% 30.03 in 10.0 mi ESE 5.8 mph - N/A   Clear
8:56 PM 39.9 °F 35.8 °F 36.0 °F 86% 30.04 in 10.0 mi East 5.8 mph - N/A   Clear
9:56 PM 37.9 °F 33.5 °F 36.0 °F 93% 30.04 in 10.0 mi East 5.8 mph - N/A   Clear
10:56 PM 39.9 °F 35.8 °F 36.0 °F 86% 30.04 in 10.0 mi ESE 5.8 mph - N/A   Clear
11:56 PM 41.0 °F 36.4 °F 37.0 °F 86% 30.04 in 10.0 mi SE 6.9 mph - N/A   Clear